GW5381 Weather Reports


time (UTC)temp
C
wind
direction
speed
KPH
gust
KPH
rain 1hr
cm
rain 24hr
cm
rain mn
cm
humidity
%
barometer
mb
20260508220512 20 177 0.0 4.8 0.00 0.00 0.00 41 1010.3
20260508220008 21 128 0.0 9.7 0.00 0.00 0.00 40 1010.3
20260508215505 21 49 1.6 4.8 0.00 0.00 0.00 39 1010.3
20260508215001 21 113 1.6 4.8 0.00 0.00 0.00 40 1010.2
20260508214459 22 149 3.2 6.4 0.00 0.00 0.00 37 1010.3
20260508213955 21 127 1.6 6.4 0.00 0.00 0.00 38 1010.2
20260508213453 22 197 6.4 14.5 0.00 0.00 0.00 37 1010.3
20260508212948 22 113 1.6 9.7 0.00 0.00 0.00 38 1010.3
20260508212445 21 101 3.2 4.8 0.00 0.00 0.00 39 1010.5
20260508211941 20 115 1.6 9.7 0.00 0.00 0.00 40 1010.5
20260508211437 21 115 1.6 3.2 0.00 0.00 0.00 40 1010.5
20260508210934 21 113 0.0 3.2 0.00 0.00 0.00 40 1010.7
20260508210431 21 164 3.2 6.4 0.00 0.00 0.00 37 1010.9
20260508205927 22 124 1.6 9.7 0.00 0.00 0.00 35 1010.8
20260508205424 22 76 1.6 9.7 0.00 0.00 0.00 36 1011.1
20260508204920 22 117 1.6 6.4 0.00 0.00 0.00 38 1011.0
20260508204418 21 130 1.6 9.7 0.00 0.00 0.00 40 1011.0
20260508203913 20 137 1.6 6.4 0.00 0.00 0.00 38 1011.2
20260508203410 20 110 1.6 1.6 0.00 0.00 0.00 41 1011.1
20260508202906 21 121 1.6 16.1 0.00 0.00 0.00 37 1011.1
20260508202403 21 90 3.2 3.2 0.00 0.00 0.00 39 1011.1
20260508201900 21 167 1.6 6.4 0.00 0.00 0.00 37 1011.4
20260508201356 21 246 1.6 6.4 0.00 0.00 0.00 39 1011.5
20260508200853 20 108 0.0 3.2 0.00 0.00 0.00 41 1011.5
20260508200350 20 107 3.2 11.3 0.00 0.00 0.00 39 1011.5
20260508195845 20 119 0.0 9.7 0.00 0.00 0.00 39 1011.6
20260508195343 20 290 4.8 4.8 0.00 0.00 0.00 38 1011.4
20260508194839 21 165 0.0 4.8 0.00 0.00 0.00 37 1011.5
20260508194336 21 249 1.6 11.3 0.00 0.00 0.00 38 1011.7
20260508193833 22 45 3.2 6.4 0.00 0.00 0.00 36 1011.5
20260508193330 22 288 4.8 11.3 0.00 0.00 0.00 36 1011.6
20260508192826 22 125 0.0 1.6 0.00 0.00 0.00 36 1011.6
20260508192323 21 122 1.6 4.8 0.00 0.00 0.00 37 1011.8
20260508191820 22 85 3.2 6.4 0.00 0.00 0.00 35 1011.7
20260508191317 23 116 1.6 6.4 0.00 0.00 0.00 33 1011.9
20260508190815 22 80 1.6 6.4 0.00 0.00 0.00 36 1012.0
20260508190311 22 235 3.2 6.4 0.00 0.00 0.00 33 1011.9
20260508185807 22 302 4.8 11.3 0.00 0.00 0.00 36 1012.1
20260508185306 22 275 4.8 6.4 0.00 0.00 0.00 39 1012.1
20260508184802 22 260 4.8 9.7 0.00 0.00 0.00 36 1012.3
20260508184259 22 168 6.4 12.9 0.00 0.00 0.00 35 1012.3
20260508183756 22 86 3.2 3.2 0.00 0.00 0.00 38 1012.5
20260508183252 22 162 3.2 9.7 0.00 0.00 0.00 36 1012.5
20260508182748 21 142 3.2 9.7 0.00 0.00 0.00 37 1012.5
20260508182245 22 13 1.6 9.7 0.00 0.00 0.00 40 1012.6
20260508181741 21 242 6.4 14.5 0.00 0.00 0.00 36 1012.8
20260508181238 22 188 3.2 12.9 0.00 0.00 0.00 36 1012.8
20260508180734 21 276 4.8 11.3 0.00 0.00 0.00 42 1013.0
20260508180231 22 180 1.6 4.8 0.00 0.00 0.00 38 1013.0
20260508175728 21 114 3.2 6.4 0.00 0.00 0.00 39 1012.9
20260508175225 21 109 1.6 4.8 0.00 0.00 0.00 45 1013.2
20260508174723 21 154 3.2 11.3 0.00 0.00 0.00 39 1013.2
20260508174220 21 135 0.0 1.6 0.00 0.00 0.00 45 1013.0
20260508173716 21 125 3.2 3.2 0.00 0.00 0.00 37 1013.3
20260508173212 21 254 4.8 11.3 0.00 0.00 0.00 37 1013.4
20260508172709 21 115 3.2 11.3 0.00 0.00 0.00 38 1013.4
20260508172206 20 289 4.8 9.7 0.00 0.00 0.00 38 1013.9
20260508171702 20 128 3.2 6.4 0.00 0.00 0.00 40 1014.1
20260508171159 21 3 6.4 9.7 0.00 0.00 0.00 37 1014.0
20260508170656 20 237 9.7 12.9 0.00 0.00 0.00 39 1014.2
20260508170153 20 108 0.0 11.3 0.00 0.00 0.00 41 1014.3
20260508165650 19 106 0.0 4.8 0.00 0.00 0.00 43 1014.2
20260508165147 19 97 6.4 24.1 0.00 0.00 0.00 40 1014.4
20260508164644 19 6 3.2 11.3 0.00 0.00 0.00 41 1014.5
20260508164140 19 14 8.0 12.9 0.00 0.00 0.00 41 1014.7
20260508163638 19 251 3.2 4.8 0.00 0.00 0.00 43 1014.7
20260508163135 19 271 8.0 12.9 0.00 0.00 0.00 41 1014.9
20260508162631 18 240 3.2 11.3 0.00 0.00 0.00 43 1014.9
20260508162129 18 41 6.4 14.5 0.00 0.00 0.00 44 1014.7
20260508161625 18 278 6.4 12.9 0.00 0.00 0.00 42 1014.8
20260508161123 18 156 4.8 14.5 0.00 0.00 0.00 43 1014.9
20260508160621 18 105 4.8 9.7 0.00 0.00 0.00 45 1015.0
20260508160119 18 132 1.6 4.8 0.00 0.00 0.00 46 1015.0
20260508155615 18 58 4.8 9.7 0.00 0.00 0.00 45 1015.2
20260508155112 18 15 1.6 17.7 0.00 0.00 0.00 44 1015.3
20260508154609 17 133 1.6 11.3 0.00 0.00 0.00 45 1015.3
20260508154106 17 266 1.6 6.4 0.00 0.00 0.00 48 1015.4
20260508153603 17 113 3.2 11.3 0.00 0.00 0.00 44 1015.4
20260508153059 17 110 1.6 9.7 0.00 0.00 0.00 47 1015.4
20260508152557 17 103 3.2 6.4 0.00 0.00 0.00 47 1015.6
20260508152057 17 106 1.6 4.8 0.00 0.00 0.00 48 1015.5
20260508151555 17 109 1.6 16.1 0.00 0.00 0.00 47 1015.7
20260508151052 16 86 1.6 6.4 0.00 0.00 0.00 49 1015.7
20260508150549 16 110 0.0 6.4 0.00 0.00 0.00 48 1015.6
20260508150044 16 105 4.8 9.7 0.00 0.00 0.00 46 1015.7
20260508145541 16 126 3.2 11.3 0.00 0.00 0.00 50 1015.7
20260508145038 16 93 1.6 4.8 0.00 0.00 0.00 47 1015.6
20260508144536 16 111 1.6 6.4 0.00 0.00 0.00 48 1015.7
20260508144033 16 217 1.6 9.7 0.00 0.00 0.00 47 1015.7
20260508143530 16 102 1.6 14.5 0.00 0.00 0.00 46 1015.8
20260508143026 15 107 1.6 9.7 0.00 0.00 0.00 46 1015.6
20260508142524 15 123 3.2 16.1 0.00 0.00 0.00 47 1015.9
20260508142020 15 106 3.2 9.7 0.00 0.00 0.00 47 1015.9
20260508141517 15 113 1.6 4.8 0.00 0.00 0.00 47 1015.9
20260508141015 15 78 1.6 11.3 0.00 0.00 0.00 47 1016.0
20260508140512 15 154 3.2 11.3 0.00 0.00 0.00 47 1015.9
20260508140008 15 131 1.6 6.4 0.00 0.00 0.00 49 1016.0
20260508135504 14 126 1.6 3.2 0.00 0.00 0.00 48 1016.0
20260508135000 14 142 1.6 3.2 0.00 0.00 0.00 50 1016.1
20260508134457 13 111 1.6 9.7 0.00 0.00 0.00 49 1016.0
20260508133953 13 308 3.2 9.7 0.00 0.00 0.00 49 1016.0
20260508133451 13 122 0.0 3.2 0.00 0.00 0.00 51 1016.2
20260508132947 13 155 4.8 9.7 0.00 0.00 0.00 50 1016.1
20260508132446 13 110 0.0 6.4 0.00 0.00 0.00 50 1016.2
20260508131942 12 144 3.2 9.7 0.00 0.00 0.00 52 1016.1
20260508131437 12 129 1.6 9.7 0.00 0.00 0.00 52 1016.2
20260508130934 12 96 0.0 11.3 0.00 0.00 0.00 53 1016.1
20260508130432 12 126 0.0 3.2 0.00 0.00 0.00 55 1016.1
20260508125927 11 174 3.2 4.8 0.00 0.00 0.00 54 1016.0
20260508125423 11 116 0.0 1.6 0.00 0.00 0.00 56 1016.1
20260508124921 11 128 1.6 3.2 0.00 0.00 0.00 57 1016.1
20260508124419 11 180 1.6 3.2 0.00 0.00 0.00 57 1016.2
20260508123917 11 159 1.6 4.8 0.00 0.00 0.00 59 1015.9
20260508123415 10 194 1.6 1.6 0.00 0.00 0.00 60 1016.0
20260508122911 10 146 1.6 3.2 0.00 0.00 0.00 60 1015.9
20260508122408 10 127 0.0 1.6 0.00 0.00 0.00 61 1015.8
20260508121905 9 123 0.0 1.6 0.00 0.00 0.00 62 1015.8
20260508121404 9 151 0.0 1.6 0.00 0.00 0.00 65 1015.7
20260508120901 9 125 0.0 1.6 0.00 0.00 0.00 64 1015.8
20260508120358 8 128 0.0 4.8 0.00 0.00 0.00 64 1015.9
20260508115856 8 144 1.6 3.2 0.00 0.00 0.00 65 1015.8
20260508115353 8 130 0.0 0.0 0.00 0.00 0.00 67 1015.8
20260508114849 8 152 1.6 1.6 0.00 0.00 0.00 65 1015.8
20260508114346 8 128 0.0 1.6 0.00 0.00 0.00 67 1015.8
20260508113843 8 116 0.0 1.6 0.00 0.00 0.00 67 1015.5
20260508113341 8 146 1.6 3.2 0.00 0.00 0.00 67 1015.6
20260508112837 7 111 0.0 3.2 0.00 0.00 0.00 68 1015.4
20260508112335 7 123 0.0 0.0 0.00 0.00 0.00 70 1015.6
20260508111831 7 121 0.0 1.6 0.00 0.00 0.00 69 1015.5
20260508111328 7 121 0.0 1.6 0.00 0.00 0.00 67 1015.5
20260508110826 7 132 0.0 1.6 0.00 0.00 0.00 68 1015.4
20260508110323 7 116 0.0 0.0 0.00 0.00 0.00 67 1015.3
20260508105823 7 133 0.0 1.6 0.00 0.00 0.00 67 1015.5
20260508105320 8 132 0.0 0.0 0.00 0.00 0.00 68 1015.3
20260508104817 8 132 0.0 0.0 0.00 0.00 0.00 67 1015.4
20260508104313 8 133 0.0 1.6 0.00 0.00 0.00 67 1015.2
20260508103811 8 135 1.6 1.6 0.00 0.00 0.00 66 1015.3
20260508103307 8 123 0.0 1.6 0.00 0.00 0.00 66 1015.3
20260508102805 8 145 1.6 3.2 0.00 0.00 0.00 66 1015.4
20260508102306 8 141 1.6 1.6 0.00 0.00 0.00 65 1015.3
20260508101800 8 132 0.0 0.0 0.00 0.00 0.00 65 1015.6
20260508101257 8 152 1.6 3.2 0.00 0.00 0.00 66 1015.3
20260508100755 8 130 0.0 1.6 0.00 0.00 0.00 66 1015.5
20260508100253 8 130 0.0 0.0 0.00 0.00 0.00 67 1015.4
20260508095749 8 130 0.0 1.6 0.00 0.00 0.00 66 1015.3
20260508095246 8 137 0.0 0.0 0.00 0.00 0.00 67 1015.2
20260508094743 8 137 0.0 1.6 0.00 0.00 0.00 67 1015.4
20260508094240 8 137 0.0 1.6 0.00 0.00 0.00 66 1015.3
20260508093737 8 136 0.0 1.6 0.00 0.00 0.00 66 1015.6
20260508093235 8 135 0.0 0.0 0.00 0.00 0.00 66 1015.4
20260508092732 8 134 0.0 0.0 0.00 0.00 0.00 66 1015.1
20260508092230 7 134 1.6 3.2 0.00 0.00 0.00 66 1015.2
20260508091728 7 130 0.0 0.0 0.00 0.00 0.00 69 1015.3
20260508091224 7 130 0.0 1.6 0.00 0.00 0.00 68 1015.4
20260508090722 7 130 0.0 0.0 0.00 0.00 0.00 69 1015.3
20260508090219 7 130 0.0 0.0 0.00 0.00 0.00 69 1015.2
20260508085715 7 130 0.0 0.0 0.00 0.00 0.00 69 1015.2
20260508085213 7 130 0.0 0.0 0.00 0.00 0.00 71 1015.2
20260508084708 7 130 0.0 0.0 0.00 0.00 0.00 69 1015.2
20260508084206 7 130 0.0 0.0 0.00 0.00 0.00 68 1015.2
20260508083704 7 130 0.0 0.0 0.00 0.00 0.00 70 1015.3
20260508083201 7 130 0.0 0.0 0.00 0.00 0.00 68 1015.4
20260508082655 7 130 0.0 0.0 0.00 0.00 0.00 69 1015.2
20260508082153 7 130 0.0 0.0 0.00 0.00 0.00 69 1015.1
20260508081651 7 130 0.0 0.0 0.00 0.00 0.00 65 1015.1
20260508081147 7 130 0.0 0.0 0.00 0.00 0.00 65 1015.0
20260508080645 8 130 0.0 0.0 0.00 0.00 0.00 65 1015.1
20260508080143 8 136 0.0 1.6 0.00 0.00 0.00 64 1015.1
20260508075639 8 128 0.0 0.0 0.00 0.00 0.00 64 1015.3
20260508075136 8 130 0.0 1.6 0.00 0.00 0.00 64 1015.1
20260508074633 8 127 0.0 1.6 0.00 0.00 0.00 63 1015.0
20260508074130 8 125 0.0 1.6 0.00 0.00 0.00 64 1015.1
20260508073627 8 122 0.0 0.0 0.00 0.00 0.00 62 1015.1
20260508073126 8 120 0.0 1.6 0.00 0.00 0.00 61 1015.1
20260508072620 9 122 0.0 0.0 0.00 0.00 0.00 59 1014.9
20260508072118 9 110 1.6 1.6 0.00 0.00 0.00 60 1015.3
20260508071616 9 104 1.6 3.2 0.00 0.00 0.00 58 1015.1
20260508071114 9 116 0.0 0.0 0.00 0.00 0.00 58 1015.0
20260508070611 9 124 0.0 1.6 0.00 0.00 0.00 58 1015.2
20260508070109 9 130 0.0 1.6 0.00 0.00 0.00 57 1015.0
20260508065606 9 108 1.6 3.2 0.00 0.00 0.00 59 1015.3
20260508065104 9 107 1.6 3.2 0.00 0.00 0.00 59 1015.5
20260508064601 9 110 0.0 1.6 0.00 0.00 0.00 59 1015.5
20260508064059 9 110 0.0 3.2 0.00 0.00 0.00 57 1015.4
20260508063556 9 109 0.0 1.6 0.00 0.00 0.00 58 1015.4
20260508063055 10 123 0.0 1.6 0.00 0.00 0.00 57 1015.8
20260508062552 10 120 0.0 0.0 0.00 0.00 0.00 55 1015.7
20260508062048 10 146 0.0 3.2 0.00 0.00 0.00 55 1015.8
20260508061546 10 110 1.6 3.2 0.00 0.00 0.00 55 1015.9
20260508061043 10 113 0.0 6.4 0.00 0.00 0.00 54 1015.9
20260508060539 10 143 1.6 1.6 0.00 0.00 0.00 53 1015.8
20260508060037 10 131 0.0 1.6 0.00 0.00 0.00 52 1015.8
20260508055532 10 152 0.0 3.2 0.00 0.00 0.00 53 1015.9
20260508055030 10 139 0.0 3.2 0.00 0.00 0.00 53 1015.8
20260508054526 10 136 0.0 3.2 0.00 0.00 0.00 53 1015.8
20260508054023 10 103 1.6 1.6 0.00 0.00 0.00 53 1015.9
20260508053520 10 116 0.0 4.8 0.00 0.00 0.00 53 1015.8
20260508053019 10 103 0.0 1.6 0.00 0.00 0.00 56 1015.8
20260508052515 10 123 0.0 1.6 0.00 0.00 0.00 53 1015.8
20260508052012 10 135 1.6 3.2 0.00 0.00 0.00 51 1015.8
20260508051508 10 110 0.0 1.6 0.00 0.00 0.00 52 1015.7
20260508051003 10 125 0.0 1.6 0.00 0.00 0.00 53 1015.6
20260508050500 10 119 0.0 0.0 0.00 0.00 0.00 54 1015.6
20260508045956 10 127 0.0 1.6 0.00 0.00 0.00 54 1015.6
20260508045454 10 143 0.0 1.6 0.00 0.00 0.00 54 1015.5
20260508044951 9 132 0.0 1.6 0.00 0.00 0.00 56 1015.7
20260508044448 9 131 0.0 0.0 0.00 0.00 0.00 57 1015.7
20260508043943 9 124 0.0 0.0 0.00 0.00 0.00 57 1015.8
20260508043441 10 118 0.0 0.0 0.00 0.00 0.00 57 1015.5
20260508042937 10 127 0.0 1.6 0.00 0.00 0.00 55 1015.7
20260508042436 10 111 0.0 1.6 0.00 0.00 0.00 54 1015.6
20260508041932 10 143 0.0 1.6 0.00 0.00 0.00 54 1015.5
20260508041428 10 144 0.0 1.6 0.00 0.00 0.00 54 1015.6
20260508040925 10 144 0.0 1.6 0.00 0.00 0.00 54 1015.4
20260508040423 10 133 0.0 1.6 0.00 0.00 0.00 55 1015.4
20260508035920 10 117 0.0 1.6 0.00 0.00 0.00 53 1015.7
20260508035417 10 139 0.0 1.6 0.00 0.00 0.00 54 1015.6
20260508034914 10 138 1.6 1.6 0.00 0.00 0.00 53 1015.7
20260508034411 10 140 1.6 1.6 0.00 0.00 0.00 54 1015.8
20260508033907 10 135 0.0 1.6 0.00 0.00 0.00 54 1015.6
20260508033406 10 135 0.0 0.0 0.00 0.00 0.00 53 1015.7
20260508032903 10 135 0.0 0.0 0.00 0.00 0.00 52 1015.8
20260508032401 10 135 0.0 1.6 0.00 0.00 0.00 53 1015.5
20260508031857 10 135 0.0 1.6 0.00 0.00 0.00 52 1015.7
20260508031354 10 129 0.0 1.6 0.00 0.00 0.00 52 1015.7
20260508030850 10 129 0.0 1.6 0.00 0.00 0.00 51 1015.8
20260508030347 11 128 0.0 1.6 0.00 0.00 0.00 51 1015.8
20260508025844 11 137 0.0 1.6 0.00 0.00 0.00 51 1015.6
20260508025341 11 117 0.0 0.0 0.00 0.00 0.00 51 1015.5
20260508024838 11 117 0.0 0.0 0.00 0.00 0.00 52 1015.7
20260508024334 10 117 0.0 1.6 0.00 0.00 0.00 52 1015.7
20260508023831 10 117 0.0 0.0 0.00 0.00 0.00 54 1015.7
20260508023328 11 116 0.0 0.0 0.00 0.00 0.00 53 1015.8
20260508022825 11 117 0.0 1.6 0.00 0.00 0.00 50 1015.3
20260508022321 11 117 0.0 0.0 0.00 0.00 0.00 51 1015.4
20260508021818 10 117 0.0 1.6 0.00 0.00 0.00 52 1015.6
20260508021313 10 117 0.0 1.6 0.00 0.00 0.00 52 1015.6
20260508020810 10 117 0.0 0.0 0.00 0.00 0.00 53 1015.7
20260508020308 10 117 0.0 1.6 0.00 0.00 0.00 52 1015.8
20260508015804 10 117 0.0 0.0 0.00 0.00 0.00 53 1015.8
20260508015305 10 117 0.0 0.0 0.00 0.00 0.00 53 1015.8
20260508014759 10 117 0.0 0.0 0.00 0.00 0.00 53 1015.5
20260508014256 10 117 0.0 0.0 0.00 0.00 0.00 52 1015.6
20260508013751 10 117 0.0 0.0 0.00 0.00 0.00 52 1015.5
20260508013248 10 117 0.0 0.0 0.00 0.00 0.00 51 1015.6
20260508012745 11 117 0.0 0.0 0.00 0.00 0.00 51 1015.5
20260508012242 11 117 0.0 0.0 0.00 0.00 0.00 50 1015.4
20260508011741 11 117 0.0 0.0 0.00 0.00 0.00 51 1015.4
20260508011237 11 117 0.0 0.0 0.00 0.00 0.00 51 1015.3
20260508010734 11 117 0.0 0.0 0.00 0.00 0.00 51 1015.3
20260508010233 11 117 0.0 0.0 0.00 0.00 0.00 50 1015.2
20260508005729 11 117 0.0 0.0 0.00 0.00 0.00 48 1015.2
20260508005226 12 117 0.0 0.0 0.00 0.00 0.00 50 1015.2
20260508004721 12 117 0.0 0.0 0.00 0.00 0.00 47 1015.3
20260508004218 12 116 0.0 1.6 0.00 0.00 0.00 45 1015.4
20260508003715 13 114 0.0 0.0 0.00 0.00 0.00 43 1015.3
20260508003212 13 110 0.0 1.6 0.00 0.00 0.00 41 1015.2
20260508002703 13 130 0.0 3.2 0.00 0.00 0.00 41 1015.2
20260508002201 13 108 0.0 0.0 0.00 0.00 0.00 40 1015.0
20260508001655 14 109 1.6 3.2 0.00 0.00 0.00 39 1015.0
20260508001152 15 120 0.0 0.0 0.00 0.00 0.00 39 1014.9
20260508000648 15 114 0.0 1.6 0.00 0.00 0.00 37 1014.8
20260508000145 16 123 1.6 1.6 0.00 0.00 0.00 36 1014.9
20260507235642 17 106 0.0 4.8 0.00 0.00 0.00 34 1015.0
20260507235140 17 132 1.6 3.2 0.00 0.00 0.00 32 1014.8
20260507234636 17 118 0.0 0.0 0.00 0.00 0.00 32 1014.6
20260507234132 16 111 0.0 1.6 0.00 0.00 0.00 33 1014.7
20260507233630 17 128 1.6 3.2 0.00 0.00 0.00 33 1014.7
20260507233128 17 116 1.6 4.8 0.00 0.00 0.00 32 1014.7
20260507232625 17 98 0.0 3.2 0.00 0.00 0.00 34 1014.9
20260507232122 16 105 0.0 1.6 0.00 0.00 0.00 35 1014.8
20260507231618 17 140 1.6 1.6 0.00 0.00 0.00 33 1014.6
20260507231115 17 66 0.0 3.2 0.00 0.00 0.00 35 1014.9
20260507230611 17 107 3.2 3.2 0.00 0.00 0.00 33 1014.7
20260507230108 17 107 1.6 3.2 0.00 0.00 0.00 32 1014.8
20260507225602 17 89 3.2 6.4 0.00 0.00 0.00 31 1015.0
20260507225059 17 122 0.0 1.6 0.00 0.00 0.00 33 1015.0
20260507224555 16 87 4.8 6.4 0.00 0.00 0.00 33 1014.9
20260507224051 17 117 0.0 1.6 0.00 0.00 0.00 35 1014.9
20260507223548 16 107 3.2 4.8 0.00 0.00 0.00 32 1014.9
20260507223045 17 120 3.2 12.9 0.00 0.00 0.00 31 1014.6
20260507222542 17 101 1.6 12.9 0.00 0.00 0.00 34 1014.8
20260507222038 17 113 0.0 3.2 0.00 0.00 0.00 33 1014.8
20260507221534 16 108 4.8 9.7 0.00 0.00 0.00 32 1014.8
20260507221032 17 107 3.2 6.4 0.00 0.00 0.00 32 1014.8